Theta_e
308 308 306 308 309 309 309 313 310 310 311 311 318 316 314 315 314 312 311 312 312 313 312 311 316 315 315 314 312 313 307 310 313 314 315 315 313 315 316 316 317 318 317 318 342
308 308 306 308 308 309 310 313 311 310 313 316 318 319 318 317 314 312 312 312 312 315 315 316 316 316 314 313 312 308 305 308 309 312 312 312 312 313 314 315 315 316 318 320 347
307 308 308 308 308 309 311 314 313 311 312 315 314 318 315 319 315 314 313 314 314 314 314 314 315 316 315 314 311 307 308 308 310 311 312 311 311 313 314 312 315 316 316 318 329
307 308 308 308 309 310 313 314 314 312 311 311 313 315 315 314 312 314 314 314 314 314 314 313 313 313 312 312 313 312 311 310 312 314 313 310 313 311 313 313 314 314 316 317 320
313 308 308 310 314 312 314 315 314 315 312 312 314 315 315 315 315 314 314 314 314 314 314 313 312 312 311 311 313 311 311 313 314 313 314 313 310 311 311 313 314 314 315 317 318
315 308 308 312 315 315 316 317 315 315 312 316 317 315 315 314 316 315 315 314 314 314 314 313 313 312 312 312 312 313 312 312 313 313 312 310 310 312 313 314 314 315 316 318 319
315 313 309 310 316 317 316 316 315 314 314 313 316 316 316 316 316 316 316 315 314 314 314 313 313 313 312 311 313 312 311 309 310 313 313 314 312 309 314 316 317 317 315 315 315
314 314 308 308 315 316 316 315 315 314 315 316 316 316 316 317 316 317 317 317 315 314 313 313 313 313 312 313 311 310 309 310 310 313 314 314 312 312 314 315 316 316 317 316 315
313 313 308 309 314 316 314 313 314 314 317 316 318 317 316 316 317 316 317 317 317 316 315 314 313 313 312 309 309 308 311 312 312 313 313 314 312 313 314 315 315 315 316 316 315
314 310 308 310 315 316 313 313 314 316 317 315 318 315 315 316 317 317 317 317 316 316 315 314 313 310 307 309 313 313 312 311 312 311 312 310 312 311 313 314 313 314 315 316 316
314 308 308 312 316 313 313 314 315 315 317 316 316 316 316 317 317 317 317 317 316 315 313 312 311 311 312 309 311 312 312 312 312 312 313 312 312 312 312 313 311 313 314 316 316
313 310 309 314 315 312 313 314 315 316 315 317 318 317 316 317 317 317 317 316 315 315 313 311 312 313 310 311 311 312 312 312 312 312 311 312 312 312 312 310 312 313 314 316 316
313 312 313 313 313 314 315 314 315 318 315 317 320 320 316 315 316 316 317 317 315 314 313 313 315 314 314 313 315 314 314 313 314 313 311 311 312 311 311 311 312 312 313 315 316
314 313 314 314 314 314 315 315 316 318 309 312 313 316 314 315 314 316 318 317 315 314 314 313 312 314 315 315 315 317 314 314 314 314 312 311 313 311 309 309 310 310 312 314 317
314 314 313 314 314 314 315 315 317 319 311 313 313 314 314 313 313 312 314 316 314 313 315 315 315 315 316 315 316 316 313 313 315 314 310 312 312 312 308 310 308 309 310 313 315
314 315 316 315 314 314 314 317 318 311 313 313 313 313 313 314 312 312 313 313 315 315 315 314 315 314 314 315 315 315 316 313 307 307 312 310 310 311 308 310 313 313 314 313 312
314 317 318 317 316 316 315 319 315 311 312 314 313 313 313 313 312 313 312 311 315 315 315 314 314 313 314 314 313 313 313 317 314 309 315 309 311 310 311 313 315 316 315 315 315
311 318 317 315 315 315 315 310 313 314 314 313 313 313 314 313 312 313 312 311 314 315 314 316 316 315 314 314 314 314 314 318 318 313 311 312 314 311 311 314 315 316 315 315 315
310 316 315 315 315 315 316 309 312 313 315 316 315 314 314 313 312 311 311 311 315 313 316 316 318 315 314 314 313 314 314 313 315 315 317 314 312 311 312 315 316 315 314 314 314
308 315 316 315 315 315 311 312 313 313 315 316 315 313 313 313 312 312 311 312 316 314 315 316 319 316 315 314 313 314 313 315 313 317 314 313 314 313 315 316 316 315 313 314 314
307 314 316 314 315 315 310 312 313 314 315 315 315 313 313 312 313 312 312 312 313 315 313 315 318 317 314 314 313 314 315 314 311 311 314 315 313 312 315 315 315 314 314 314 314
310 309 315 312 314 308 310 311 314 315 315 313 312 312 312 312 312 313 313 313 313 315 315 314 317 320 316 314 313 313 315 313 317 315 312 314 314 312 312 314 316 313 314 315 314
311 314 315 313 311 309 309 311 313 314 313 312 311 311 310 311 309 311 312 312 313 315 316 314 318 319 317 311 315 316 315 314 314 314 316 315 314 314 312 313 315 314 315 315 313
313 309 314 313 312 310 309 310 313 313 313 311 310 310 309 309 309 309 310 311 312 313 315 316 317 319 321 318 317 318 317 317 313 317 317 315 315 314 314 314 313 314 315 315 314
313 311 311 307 309 309 309 310 312 313 312 311 310 311 311 309 308 308 310 310 311 310 315 316 319 318 317 317 317 316 316 316 317 317 318 315 315 315 314 313 313 313 314 315 315
310 310 311 310 310 309 309 310 312 312 311 312 310 312 311 308 309 310 308 309 308 311 317 316 318 317 317 315 316 316 315 315 316 317 318 317 316 314 314 315 316 315 315 315 315
307 308 308 308 307 309 307 309 311 311 311 311 311 311 310 310 309 310 310 309 308 309 313 316 316 316 314 313 312 308 315 316 317 316 316 318 316 314 314 315 314 314 314 316 316
Wind_Speed
20 15 11 8 10 12 15 17 16 17 18 16 17 17 13 17 19 15 10 8 7 10 9 7 5 8 4 4 2 3 4 2 3 4 4 10 6 4 8 18 13 21 20 29 37
22 16 12 10 10 12 14 15 15 16 16 14 17 16 10 9 15 21 15 12 8 11 12 12 12 6 3 3 2 4 3 6 5 3 6 8 9 24 7 12 17 27 21 23 16
25 17 15 13 13 14 13 15 15 15 12 12 14 13 13 3 8 12 13 13 12 13 15 15 13 8 5 5 3 2 4 4 5 10 11 6 9 11 4 6 16 16 22 20 14
29 18 15 13 14 14 13 16 15 13 11 9 10 10 15 14 5 7 8 11 13 13 15 13 12 5 4 4 5 2 6 3 8 13 14 5 10 8 12 15 20 24 19 17 14
33 20 15 13 13 11 11 15 16 12 10 9 7 8 8 11 7 6 9 8 11 14 9 13 9 4 2 3 7 4 2 11 18 17 21 19 12 13 10 16 17 16 18 14 13
33 23 13 10 11 11 11 13 16 11 8 9 8 7 8 6 7 6 7 8 9 12 11 9 8 7 3 3 2 4 10 14 15 18 8 5 8 5 12 9 10 12 11 12 12
33 27 13 9 8 9 10 13 14 9 6 5 7 4 5 6 5 7 8 8 10 10 11 11 8 6 5 5 3 7 5 7 4 4 4 14 12 5 6 13 14 15 17 19 19
34 28 13 7 6 8 10 13 13 6 4 5 4 3 1 7 8 6 7 9 7 7 8 10 8 7 2 5 6 4 3 4 5 5 4 4 14 2 12 17 15 12 16 19 21
36 27 11 7 5 9 11 13 11 2 2 7 2 3 1 7 7 8 9 9 8 7 9 11 7 3 2 3 5 5 4 3 6 2 3 1 18 4 22 9 10 9 18 21 22
36 23 11 8 5 9 13 12 6 3 6 4 3 1 3 7 11 11 12 11 9 11 9 3 3 2 3 4 4 7 8 5 6 6 3 7 22 10 14 16 12 11 17 22 23
32 19 12 9 7 10 14 7 8 3 8 5 6 3 11 10 14 15 12 10 11 8 2 4 3 6 12 8 8 5 6 11 10 12 3 12 21 19 19 15 8 10 16 23 24
27 19 14 8 8 10 12 9 9 7 8 4 4 7 14 12 12 13 6 5 2 5 1 4 6 12 7 8 7 7 9 9 8 10 4 9 17 22 15 11 12 10 16 21 24
24 18 15 7 9 11 11 10 9 9 2 4 6 5 11 11 4 13 5 3 4 3 6 4 13 12 5 6 10 8 10 7 11 5 6 7 16 15 8 16 21 18 20 22 23
22 14 12 10 6 11 10 13 10 7 4 5 6 3 16 6 7 11 7 5 3 6 4 5 6 4 9 10 10 13 9 13 13 4 5 3 10 11 7 11 7 14 15 27 23
23 11 13 12 9 12 14 20 8 1 4 6 3 3 8 4 6 7 10 5 6 8 2 7 6 14 12 6 1 9 7 7 10 6 1 3 2 9 8 17 10 12 18 26 28
28 3 11 16 14 16 18 14 2 5 2 5 5 6 4 4 9 6 10 12 4 3 2 7 17 3 5 6 6 8 5 6 2 3 6 6 7 16 3 0 7 9 20 23 20
28 9 8 12 16 17 18 4 5 5 4 6 7 5 3 4 5 2 4 6 1 5 5 8 6 3 3 5 4 5 4 3 3 1 8 1 2 10 11 2 3 7 17 21 16
26 7 7 11 19 12 13 5 5 2 4 5 6 6 3 3 5 3 6 4 3 2 3 4 8 3 1 3 6 5 6 3 4 3 4 3 6 6 7 7 2 4 15 18 22
28 6 7 16 21 8 6 5 3 1 4 6 8 2 3 2 3 4 4 3 4 8 2 5 5 10 12 7 5 1 3 2 2 2 3 5 5 8 6 3 3 7 17 21 22
30 9 10 20 9 10 5 2 2 4 6 3 3 2 4 8 3 5 3 4 4 9 3 4 11 4 5 4 8 11 6 1 1 3 5 6 5 7 3 4 6 6 14 23 25
23 6 10 21 7 7 4 3 4 13 8 3 4 5 5 5 3 3 5 7 3 1 6 1 5 10 7 4 4 2 2 1 2 4 4 4 5 6 6 6 6 7 16 25 27
15 4 14 18 6 4 2 5 10 5 10 6 2 2 2 4 4 4 6 6 11 4 4 6 4 5 13 18 10 9 2 4 3 3 4 2 7 7 7 5 5 8 17 30 31
23 6 9 12 3 3 5 4 5 4 5 4 5 2 3 2 5 4 6 6 13 4 4 4 3 7 7 4 2 2 4 5 3 3 7 4 7 2 7 7 9 9 19 31 33
9 4 6 9 7 4 5 4 4 6 6 11 7 4 6 5 4 8 13 8 9 8 19 6 4 9 11 12 12 12 12 14 7 4 2 9 18 16 18 14 12 21 23 26 33
4 2 3 4 2 4 2 3 4 5 6 10 4 2 9 5 11 6 3 10 10 16 2 4 6 10 12 18 19 20 21 18 15 11 8 13 13 18 18 19 21 30 25 25 31
6 6 6 16 12 3 2 3 3 2 2 6 4 16 13 8 12 20 11 6 8 2 5 3 6 4 11 17 16 16 14 14 14 11 9 12 21 15 9 15 16 19 20 26 31
5 4 7 7 5 3 4 4 4 12 14 15 13 13 14 16 18 27 33 33 16 8 3 3 2 2 8 6 13 4 3 3 1 2 7 11 6 12 13 13 16 23 27 33 37
Wind_Direction
13 8 3 360 1 2 6 7 12 14 18 26 31 37 62 83 61 44 30 26 30 26 31 14 23 357 70 87 101 98 62 200 238 169 248 293 320 261 291 287 282 301 300 316 309
15 13 11 8 7 5 9 12 16 17 25 40 32 35 70 72 44 39 38 38 47 41 34 34 25 32 67 72 117 94 112 220 214 230 246 282 298 299 278 277 287 291 303 324 331
16 16 16 12 9 6 10 13 13 18 25 32 29 39 32 327 52 31 41 46 44 33 26 29 20 35 58 10 34 101 189 222 265 292 308 278 294 295 254 279 273 269 307 312 309
15 16 21 20 13 9 16 13 13 17 21 16 27 44 49 44 64 44 33 37 33 26 23 24 19 24 45 9 354 1 261 282 309 316 315 281 287 282 259 267 288 280 287 289 296
13 12 17 20 19 26 21 15 12 13 21 26 36 39 53 61 51 34 22 25 11 4 9 11 29 27 23 307 329 176 260 303 304 305 300 298 257 271 260 295 313 274 275 270 275
8 7 12 24 27 24 15 5 6 7 17 26 38 42 48 62 26 2 358 7 357 10 11 358 349 326 284 263 156 292 282 287 296 293 287 287 268 278 314 327 318 304 292 282 260
6 4 1 12 24 23 15 360 355 356 12 12 27 25 31 32 1 9 8 1 350 341 335 345 335 353 316 311 312 283 316 322 294 312 279 332 292 187 88 10 2 336 318 294 284
3 359 358 3 6 1 351 347 341 339 3 4 355 336 352 9 359 3 354 11 5 359 348 343 318 315 240 301 333 352 64 15 293 328 304 24 275 241 8 350 338 323 315 298 290
359 357 0 1 6 356 354 348 347 14 313 343 349 340 306 337 341 341 334 327 333 339 327 314 304 307 343 57 355 360 286 296 307 257 265 267 290 162 295 298 300 297 304 300 290
359 0 12 12 31 10 359 345 7 19 346 347 347 324 303 321 320 316 328 309 289 307 320 329 337 15 25 77 261 282 295 256 264 287 264 286 282 282 282 276 258 263 293 294 295
3 10 18 18 38 19 10 6 3 329 333 302 309 278 290 326 313 295 292 298 271 288 275 350 16 256 270 216 242 248 252 262 275 277 268 276 284 294 291 278 259 244 279 285 287
7 12 7 24 26 14 18 36 18 324 314 328 299 295 337 333 313 341 292 234 207 256 318 355 252 267 255 276 243 245 266 270 281 269 187 271 276 287 290 279 276 250 268 265 280
10 12 21 36 27 18 26 20 352 339 303 314 345 317 345 324 315 325 295 247 231 261 263 210 261 304 292 294 300 269 259 262 260 288 273 277 281 287 287 279 291 288 258 249 260
9 9 25 31 10 6 7 354 340 343 59 302 356 11 344 348 0 351 330 309 309 260 273 226 278 259 309 296 283 279 231 250 260 272 253 166 290 280 268 280 283 282 269 253 240
5 19 28 17 12 3 345 335 315 342 23 309 308 318 359 56 294 342 350 302 253 282 130 259 282 307 306 248 113 247 239 249 270 250 246 217 266 262 4 297 308 317 305 274 244
0 328 19 15 10 354 344 341 110 45 323 323 322 324 13 308 330 303 336 324 306 324 246 252 288 225 217 284 253 259 315 285 46 175 249 192 185 289 212 243 333 323 335 307 282
3 2 342 351 344 346 343 333 32 94 347 314 309 310 337 272 317 285 311 338 357 356 312 327 283 284 217 322 349 64 41 310 313 318 247 164 184 249 269 126 225 314 332 340 333
4 8 37 2 352 333 345 52 60 212 269 295 288 298 259 327 265 290 301 315 225 168 303 317 327 5 191 189 263 271 177 218 264 237 275 320 239 243 199 159 212 298 299 344 3
354 308 337 346 353 7 6 56 212 244 291 297 311 303 294 310 266 3 262 233 237 181 248 315 268 289 285 272 187 228 194 209 224 238 262 229 284 303 185 191 245 288 316 337 348
350 349 1 356 2 4 70 232 239 235 318 311 297 256 283 307 299 357 279 224 241 198 168 290 293 277 302 299 234 200 151 136 23 250 255 274 263 230 326 318 292 295 305 334 341
356 359 348 352 348 46 103 252 290 314 338 290 266 270 284 298 293 276 261 290 217 35 160 276 230 294 325 229 220 183 194 252 238 189 209 286 252 218 216 204 260 285 319 333 334
358 351 339 357 41 40 41 314 313 297 336 288 310 320 275 298 280 261 244 212 326 169 203 218 262 276 282 285 267 236 224 215 236 222 248 242 272 245 247 233 224 296 333 329 324
336 304 353 356 78 348 313 287 271 320 319 327 302 36 312 300 345 252 280 280 310 182 271 189 245 303 300 1 6 99 207 221 270 251 203 225 260 257 274 282 267 288 322 316 316
339 344 351 48 100 91 337 288 303 323 299 353 283 5 359 309 245 274 284 292 339 276 287 228 234 239 266 280 298 287 271 263 219 237 219 231 271 280 297 301 314 307 299 308 308
345 337 359 313 329 328 213 267 295 336 343 327 308 52 332 287 300 244 245 304 294 291 291 185 256 260 269 271 270 271 282 283 274 239 236 271 280 294 290 295 294 294 282 295 300
0 355 344 302 294 287 252 242 236 241 255 279 231 305 309 259 243 284 286 265 245 287 163 204 280 279 291 278 268 276 279 278 270 284 279 292 280 287 294 304 317 322 270 283 290
354 308 304 279 289 293 244 236 269 332 292 232 321 301 299 284 276 280 279 269 245 256 223 223 261 287 289 316 308 316 219 236 272 244 294 298 297 314 308 310 306 308 302 293 285